Location: Trento
(46.0670°N, 11.1330°E)
Time: 13:17:17
(UTC+01:00)

ISS - Visible Passes

Search period start: 11 February 2026 00:00
Search period end: 21 February 2026 00:00
Orbit: 413 x 429 km, 51.6° (Epoch: 10 February)

Date Brightness Start Highest point End Pass type
(mag) Time Alt. Az. Time Alt. Az. Time Alt. Az.
12 Feb -1.3 06:19:40 10° SSW 06:22:21 23° SE 06:25:04 10° E visible
13 Feb -0.9 05:33:32 10° S 05:35:30 15° SE 05:37:28 10° E visible
14 Feb -3.2 06:21:35 10° SW 06:24:52 58° SSE 06:28:10 10° ENE visible
15 Feb -2.5 05:36:20 23° SSW 05:37:52 37° SE 05:40:59 10° ENE visible
16 Feb -1.5 04:51:30 22° ESE 04:51:30 22° ESE 04:53:39 10° E visible
16 Feb -3.7 06:24:31 12° WSW 06:27:30 64° NNW 06:30:50 10° ENE visible
17 Feb -3.9 05:39:31 48° WSW 05:40:22 90° S 05:43:43 10° ENE visible
18 Feb -2.2 04:54:24 35° E 04:54:24 35° E 04:56:33 10° ENE visible
18 Feb -3.0 06:27:24 12° W 06:30:13 37° NNW 06:33:22 10° ENE visible
19 Feb -0.2 04:09:12 11° ENE 04:09:12 11° ENE 04:09:18 10° ENE visible
19 Feb -3.3 05:42:11 38° WNW 05:42:57 46° NNW 05:46:13 10° ENE visible
20 Feb -2.3 04:56:54 35° NE 04:56:54 35° NE 04:59:02 10° ENE visible
20 Feb -2.5 06:29:56 10° WNW 06:32:57 30° N 06:35:58 10° ENE visible
